STARLINK-11579, 63143

Orbit data source: Space-Track

STARLINK-11579, 63143 is a payload satellite owned by SpaceX/Seattle (US) in LEO that was launched on Mon, 03 Mar 2025 UTC via an FALCON 9 launch vehicle from the Air Force Eastern Test Range (AFETR). Payload-class satellites include a variety of spacecraft equipped with specific instruments for various scientific and technological missions. These include communications satellites like Starlink; space stations such as the ISS; scientific satellites like the Hubble; Earth observation satellites from companies like Planet Labs, Umbra, and HawkEye 360; GPS; miniature CubeSats for education and research; and military/defense satellites.

Loading next visibility...
Identifier
63143, 2025-043M
Orbit
LEO
Country
Flag of USUS
Related business
Manufacturer
SpaceX/Seattle
Mission
Operational Commercial Communications
Bus & Motor
STARLINK V2MD, Unknown motor
Mass
960 kg wet, ~910 kg dry
Launch date (UTC)
2025-03-03 (6 months ago)
Launch vehicle
FALCON 9
Launch site
Air Force Eastern Test Range (AFETR)
Object type
Payload
Rocket body
Debris
Shape & HBR
Box + 2 Pan, 14.5 m
Radar Cross Section
36.964 m², Large (>1 m²)

Expand to show TLE details & history
Last TLE update: 13 hours ago

TLE from 13 hours ago
0 STARLINK-11579
1 63143U 25043M   25258.37641817  .00439960  00000-0  32331-2 0  9995
2 63143  43.0011 227.1102 0002339 280.2454  79.8150 15.70994053 31787
Epoch: 2025-09-15T09:02Z
TLE epoch observation values (Epoch: 2025-09-15T09:02:02.529Z)
Latitude
-0.00003°
Longitude
97.01767°
Altitude
355.548 km
Speed
7.698 km/s
True Right ascension
15h 08m 26s
True Declination
0° 00' 00"
Sunlit
Object was in daylight at epoch
Visualization orbit readout
Latitude
Unknown
Longitude
Unknown
Altitude
Unknown
Speed
Unknown
Apparent Right ascension
Unknown
Apparent Declination
Unknown
Sunlit
N/A
Visualization observer readout
Local Sidereal Time
14:43:52
Azimuth
Unknown
Elevation
Unknown
Doppler factor
Unknown
Orbital elements
Apogee altitude
359.612 km
Perigee altitude
356.461 km
Semi-major axis
6,736.173 km
Eccentricity
0.00023
Inclination
43.0011°
RAAN
227.1102°
Arg. of periapsis
280.2454°
True anomaly
79.84138°
Mean anomaly
79.815°
Eccentric anomaly
79.82819°
Mean motion
3.92576 °/min
Orbital period
91.7 mins
BSTAR
0.0032331
Loading maneuver chart data...
Computing Atmospheric mass density...
Loading historical data...
Loading historical data...
Loading historical data...
Loading historical data...
Loading historical data...
Loading historical data...
Loading historical data...

Documentation

Showing up to 5 results
|